Tracking 27420 objects as of 10-Jun-2023
HD Live streaming from Space Station
objects crossing your sky now

STARLINK-1510

Track STARLINK-1510 now!
10-day predictions
STARLINK-1510 is classified as:


NORAD ID: 45784
Int'l Code: 2020-038BG
Perigee: 553.7 km
Apogee: 554.9 km
Inclination: 53.1 °
Period: 95.6 minutes
Semi major axis: 6925 km
RCS: Unknown
Launch date: June 13, 2020
Source: United States (US)
Launch site: AIR FORCE EASTERN TEST RANGE (AFETR)
Your satellite tracking list
Your tracking list is empty




NASA's NSSDC Master Catalog

Two Line Element Set (TLE):
1 45784U 20038BG  23161.31763540  .00008057  00000-0  55892-3 0  9995
2 45784  53.0532  20.9249 0000928  84.2842 275.8252 15.06414656165529
Source of the keplerian elements: AFSPC